{"data":{"norad_id":64308,"intl_designator":"2025-123T","name":"STARLINK-34374","alt_names":[],"object_type":"PAYLOAD","status":"ACTIVE","operator":null,"country":"US","launch_date":"2025-06-08","launch_site_code":"AFWTR","launch_vehicle":null,"mission":null,"orbit_class":"UNKNOWN","rcs_meters":null,"size_class":null,"mass_kg":null,"dimensions":null,"purposes":["comms"],"wikipedia_slug":null,"has_3d_model":false,"image_url":null,"decayed_at":null,"tle_current":{"epoch":"2026-05-25T01:04:17.823072Z","epoch_age_seconds":65022,"freshness":"FRESH","line1":"1 64308U 25123T   26145.04465073  .00003245  00000+0  27959-3 0  9999","line2":"2 64308  70.0018   2.0213 0002552 269.1242  90.9624 14.98338300 53059","mean_motion":14.983383,"eccentricity":0.0002552,"inclination_deg":70.0018,"raan_deg":2.0213,"arg_perigee_deg":269.1242,"mean_anomaly_deg":90.9624,"bstar":0.00027959,"rev_number":5305,"period_min":96.106466743859,"perigee_km":570.25654132201,"apogee_km":573.80390667314,"semimajor_km":6950.1672239976,"source":"CELESTRAK","updated_at":"2026-05-25T13:38:20.369457Z"}}}